| time (UTC) | temp F | wind direction | speed MPH | gust MPH | rain 1hr in | rain 24hr in | rain mn in | humidity % | barometer mb |
| 20260502204526 | 43 | 259 | 7.0 | 17.0 | 0.00 | 0.00 | 0.00 | 75 | 1013.1 |
| 20260502203020 | 44 | 254 | 8.0 | 16.0 | 0.00 | 0.00 | 0.00 | 74 | 1013.2 |
| 20260502201520 | 44 | 209 | 8.0 | 15.0 | 0.00 | 0.00 | 0.00 | 72 | 1013.2 |
| 20260502200020 | 44 | 227 | 7.0 | 18.0 | 0.00 | 0.00 | 0.00 | 70 | 1013.3 |
| 20260502194518 | 44 | 246 | 10.0 | 17.0 | 0.00 | 0.00 | 0.00 | 71 | 1013.4 |
| 20260502193017 | 44 | 205 | 9.0 | 14.0 | 0.00 | 0.00 | 0.00 | 71 | 1013.5 |
| 20260502191520 | 44 | 237 | 8.0 | 17.0 | 0.00 | 0.00 | 0.00 | 72 | 1013.6 |
| 20260502190017 | 44 | 233 | 11.0 | 17.0 | 0.00 | 0.00 | 0.00 | 71 | 1013.6 |
| 20260502184526 | 45 | 203 | 8.0 | 14.0 | 0.00 | 0.00 | 0.00 | 71 | 1013.4 |
| 20260502183015 | 44 | 216 | 10.0 | 17.0 | 0.00 | 0.00 | 0.00 | 72 | 1013.4 |
| 20260502181515 | 44 | 218 | 10.0 | 17.0 | 0.00 | 0.00 | 0.00 | 70 | 1013.2 |
| 20260502163013 | 44 | 252 | 8.0 | 16.0 | 0.00 | 0.00 | 0.00 | 72 | 1013.3 |
| 20260502161506 | 43 | 240 | 7.0 | 15.0 | 0.00 | 0.00 | 0.00 | 73 | 1013.4 |
| 20260502151503 | 42 | 277 | 12.0 | 17.0 | 0.00 | 0.00 | 0.00 | 77 | 1013.6 |
| 20260502123054 | 39 | 231 | 7.0 | 11.0 | 0.00 | 0.00 | 0.00 | 83 | 1013.7 |
| 20260502121540 | 39 | 234 | 6.0 | 11.0 | 0.00 | 0.00 | 0.00 | 83 | 1013.7 |
| 20260502114535 | 39 | 244 | 5.0 | 13.0 | 0.00 | 0.00 | 0.00 | 88 | 1013.5 |
| 20260502113036 | 39 | 252 | 3.0 | 7.0 | 0.00 | 0.00 | 0.00 | 93 | 1013.4 |
| 20260502111541 | 39 | 238 | 2.0 | 4.0 | 0.00 | 0.00 | 0.00 | 93 | 1013.1 |
| 20260502110029 | 39 | 226 | 3.0 | 7.0 | 0.00 | 0.00 | 0.00 | 93 | 1013.0 |
| 20260502104526 | 39 | 229 | 3.0 | 6.0 | 0.00 | 0.00 | 0.00 | 93 | 1013.0 |
| 20260502103026 | 39 | 231 | 3.0 | 7.0 | 0.00 | 0.00 | 0.00 | 94 | 1012.8 |
| 20260502101525 | 39 | 218 | 2.0 | 5.0 | 0.00 | 0.00 | 0.00 | 95 | 1012.6 |
| 20260502091523 | 38 | 224 | 1.0 | 3.0 | 0.00 | 0.00 | 0.00 | 95 | 1012.2 |
| 20260502071515 | 37 | 227 | 0.0 | 2.0 | 0.00 | 0.00 | 0.00 | 94 | 1012.3 |
| 20260502070015 | 37 | 203 | 1.0 | 2.0 | 0.00 | 0.00 | 0.00 | 94 | 1012.4 |
| 20260502064518 | 37 | 242 | 1.0 | 2.0 | 0.00 | 0.00 | 0.00 | 94 | 1012.4 |
| 20260502063014 | 37 | 227 | 0.0 | 5.0 | 0.00 | 0.00 | 0.00 | 93 | 1012.5 |
| 20260502061508 | 38 | 194 | 1.0 | 6.0 | 0.00 | 0.00 | 0.00 | 93 | 1012.7 |
| 20260502060007 | 38 | 214 | 3.0 | 6.0 | 0.00 | 0.00 | 0.00 | 92 | 1012.7 |
| 20260502054505 | 38 | 212 | 2.0 | 5.0 | 0.00 | 0.00 | 0.00 | 92 | 1012.7 |
| 20260502053004 | 38 | 214 | 2.0 | 4.0 | 0.00 | 0.00 | 0.00 | 92 | 1012.7 |
| 20260502051501 | 38 | 204 | 1.0 | 4.0 | 0.00 | 0.00 | 0.00 | 91 | 1012.8 |
| 20260502050001 | 38 | 204 | 2.0 | 6.0 | 0.00 | 0.00 | 0.00 | 91 | 1012.9 |
| 20260502044603 | 38 | 209 | 2.0 | 5.0 | 0.00 | 0.00 | 0.00 | 90 | 1012.9 |
| 20260502043100 | 39 | 198 | 2.0 | 3.0 | 0.00 | 0.00 | 0.00 | 90 | 1012.8 |
| 20260502041558 | 39 | 192 | 1.0 | 4.0 | 0.00 | 0.00 | 0.00 | 89 | 1012.9 |
| 20260502040101 | 39 | 158 | 2.0 | 4.0 | 0.00 | 0.00 | 0.00 | 88 | 1012.9 |
| 20260502034556 | 40 | 174 | 2.0 | 5.0 | 0.00 | 0.00 | 0.00 | 87 | 1012.9 |
| 20260502033052 | 40 | 140 | 2.0 | 6.0 | 0.00 | 0.00 | 0.00 | 86 | 1012.8 |
| 20260502031551 | 40 | 179 | 2.0 | 6.0 | 0.00 | 0.00 | 0.00 | 85 | 1012.8 |
| 20260502030053 | 41 | 181 | 3.0 | 5.0 | 0.00 | 0.00 | 0.00 | 84 | 1012.8 |
| 20260502024554 | 41 | 224 | 3.0 | 6.0 | 0.00 | 0.00 | 0.00 | 84 | 1012.9 |
| 20260502023050 | 41 | 220 | 1.0 | 4.0 | 0.00 | 0.00 | 0.00 | 82 | 1012.9 |
| 20260502021550 | 42 | 211 | 1.0 | 3.0 | 0.00 | 0.00 | 0.00 | 82 | 1013.0 |
| 20260502020049 | 42 | 252 | 1.0 | 2.0 | 0.00 | 0.00 | 0.00 | 81 | 1013.0 |
| 20260502014550 | 42 | 237 | 0.0 | 3.0 | 0.00 | 0.00 | 0.00 | 81 | 1012.9 |
| 20260502013047 | 42 | 153 | 2.0 | 5.0 | 0.00 | 0.00 | 0.00 | 80 | 1012.7 |
| 20260502011546 | 43 | 154 | 2.0 | 5.0 | 0.00 | 0.00 | 0.00 | 80 | 1012.7 |
| 20260502010049 | 43 | 163 | 1.0 | 7.0 | 0.00 | 0.00 | 0.00 | 78 | 1012.7 |
| 20260502004545 | 43 | 208 | 3.0 | 9.0 | 0.00 | 0.00 | 0.00 | 76 | 1012.7 |
| 20260502003043 | 44 | 219 | 6.0 | 11.0 | 0.00 | 0.00 | 0.00 | 72 | 1012.7 |
| 20260502001543 | 45 | 221 | 3.0 | 10.0 | 0.00 | 0.00 | 0.00 | 68 | 1012.5 |
| 20260502000049 | 45 | 215 | 3.0 | 9.0 | 0.00 | 0.00 | 0.00 | 65 | 1012.4 |
| 20260501234541 | 45 | 247 | 6.0 | 13.0 | 0.00 | 0.00 | 0.00 | 64 | 1012.3 |
| 20260501233040 | 46 | 236 | 5.0 | 12.0 | 0.00 | 0.00 | 0.00 | 58 | 1012.2 |
| 20260501231554 | 46 | 229 | 5.0 | 9.0 | 0.00 | 0.00 | 0.00 | 56 | 1012.1 |
| 20260501230041 | 46 | 255 | 3.0 | 8.0 | 0.00 | 0.00 | 0.00 | 55 | 1012.0 |
| 20260501224547 | 46 | 223 | 3.0 | 7.0 | 0.00 | 0.00 | 0.00 | 54 | 1011.8 |
| 20260501223045 | 46 | 280 | 1.0 | 7.0 | 0.00 | 0.00 | 0.00 | 54 | 1011.8 |
| 20260501221551 | 46 | 281 | 3.0 | 8.0 | 0.00 | 0.00 | 0.00 | 52 | 1011.7 |
| 20260501220036 | 47 | 266 | 3.0 | 7.0 | 0.00 | 0.01 | 0.00 | 51 | 1011.7 |
| 20260501214536 | 47 | 265 | 4.0 | 9.0 | 0.00 | 0.01 | 0.00 | 55 | 1011.7 |
| 20260501213034 | 47 | 268 | 4.0 | 0.0 | 0.00 | 0.00 | 0.00 | 53 | 1011.7 |
| 20260501211537 | 47 | 257 | 4.0 | 12.0 | 0.00 | 0.01 | 0.00 | 51 | 1011.6 |
| 20260501210033 | 47 | 291 | 5.0 | 10.0 | 0.00 | 0.01 | 0.00 | 50 | 1011.7 |